• In Moldova, Republic
  • List of Countries
  • For 7 days
  • Water Temperature
  • Satellite Maps
  • Weather Map
  • Weather Widgets
  • user-avatar
    Login

    Hourly Weather Sidi Bu-l-Abbas

    Today, 15 November, Thursday

    Time Temperature Precipitation Wind Pressure Humidity
    00:00 +17°C° 0.7 mm 3 mps 718 mmHg 64%
    01:00 +17°C° 0.1 mm 3 mps 718 mmHg 65%
    02:00 +17°C° 0.1 mm 3 mps 718 mmHg 67%
    03:00 +16°C° 0.1 mm 3 mps 717 mmHg 69%
    04:00 +16°C° 0 mm 2 mps 718 mmHg 69%
    05:00 +16°C° 0 mm 2 mps 718 mmHg 70%
    06:00 +15°C° 0 mm 2 mps 718 mmHg 71%
    07:00 +16°C° 0 mm 2 mps 718 mmHg 67%
    08:00 +17°C° 0 mm 2 mps 719 mmHg 62%
    09:00 +18°C° 0 mm 2 mps 719 mmHg 58%
    10:00 +19°C° 0 mm 2 mps 719 mmHg 55%
    11:00 +20°C° 0 mm 2 mps 719 mmHg 52%
    12:00 +20°C° 0 mm 2 mps 719 mmHg 49%
    13:00 +20°C° 0 mm 2 mps 719 mmHg 50%
    14:00 +20°C° 0 mm 3 mps 719 mmHg 52%
    15:00 +20°C° 0 mm 3 mps 718 mmHg 53%
    16:00 +19°C° 0 mm 2 mps 719 mmHg 58%
    17:00 +18°C° 0 mm 2 mps 719 mmHg 63%
    18:00 +18°C° 0 mm 1 mps 719 mmHg 68%
    19:00 +18°C° 0 mm 1 mps 719 mmHg 71%
    20:00 +18°C° 0 mm 1 mps 719 mmHg 74%
    21:00 +15°C° 0 mm 0 mps 720 mmHg 77%
    22:00 +15°C° 0 mm 0 mps 720 mmHg 78%
    23:00 +14°C° 0 mm 0 mps 720 mmHg 79%

    Tomorrow, 16 November, Friday

    Time Temperature Precipitation Wind Pressure Humidity
    00:00 +14°C° 0 mm 0 mps 720 mmHg 80%
    01:00 +14°C° 0 mm 0 mps 719 mmHg 81%
    02:00 +15°C° 0 mm 1 mps 719 mmHg 81%
    03:00 +14°C° 0 mm 1 mps 719 mmHg 81%
    04:00 +14°C° 0 mm 1 mps 719 mmHg 81%
    05:00 +14°C° 0 mm 1 mps 719 mmHg 81%
    06:00 +14°C° 0 mm 1 mps 719 mmHg 81%
    07:00 +15°C° 0 mm 1 mps 719 mmHg 75%
    08:00 +16°C° 0 mm 1 mps 720 mmHg 68%
    09:00 +18°C° 0 mm 2 mps 720 mmHg 62%
    10:00 +19°C° 0 mm 2 mps 720 mmHg 57%
    11:00 +20°C° 0 mm 2 mps 720 mmHg 51%
    12:00 +21°C° 0 mm 2 mps 719 mmHg 46%
    13:00 +21°C° 0 mm 3 mps 719 mmHg 45%
    14:00 +21°C° 0 mm 3 mps 719 mmHg 43%
    15:00 +22°C° 0 mm 3 mps 718 mmHg 41%
    16:00 +21°C° 0 mm 3 mps 718 mmHg 45%
    17:00 +20°C° 0 mm 3 mps 718 mmHg 50%
    18:00 +19°C° 0 mm 3 mps 718 mmHg 54%
    19:00 +18°C° 0 mm 3 mps 718 mmHg 56%
    20:00 +18°C° 0 mm 2 mps 718 mmHg 59%
    21:00 +18°C° 0 mm 2 mps 718 mmHg 61%
    22:00 +17°C° 0 mm 2 mps 718 mmHg 62%
    23:00 +17°C° 0 mm 2 mps 718 mmHg 64%

    Day after tomorrow, 17 November, Saturday

    Time Temperature Precipitation Wind Pressure Humidity
    00:00 +18°C° 0 mm 1 mps 718 mmHg 65%
    01:00 +16°C° 0 mm 1 mps 718 mmHg 66%
    02:00 +16°C° 0 mm 1 mps 717 mmHg 68%
    03:00 +15°C° 0 mm 1 mps 717 mmHg 69%
    04:00 +15°C° 0 mm 1 mps 717 mmHg 72%
    05:00 +14°C° 0 mm 1 mps 717 mmHg 74%
    06:00 +14°C° 0 mm 1 mps 717 mmHg 77%
    07:00 +15°C° 0 mm 1 mps 717 mmHg 72%
    08:00 +16°C° 0 mm 1 mps 717 mmHg 68%
    09:00 +18°C° 0 mm 1 mps 718 mmHg 64%
    10:00 +18°C° 0 mm 2 mps 718 mmHg 61%
    11:00 +19°C° 0 mm 2 mps 717 mmHg 58%
    12:00 +19°C° 0 mm 2 mps 717 mmHg 55%
    13:00 +19°C° 0 mm 3 mps 717 mmHg 56%
    14:00 +19°C° 0 mm 3 mps 717 mmHg 56%
    15:00 +19°C° 0 mm 3 mps 716 mmHg 57%
    16:00 +18°C° 0 mm 3 mps 716 mmHg 62%
    17:00 +18°C° 0 mm 3 mps 716 mmHg 67%
    18:00 +17°C° 0 mm 2 mps 715 mmHg 72%
    19:00 +17°C° 0 mm 2 mps 715 mmHg 73%
    20:00 +16°C° 0 mm 2 mps 715 mmHg 74%
    21:00 +16°C° 0 mm 2 mps 715 mmHg 75%
    22:00 +16°C° 0 mm 2 mps 715 mmHg 75%
    23:00 +16°C° 0 mm 2 mps 714 mmHg 75%

    18 November, Sunday

    Time Temperature Precipitation Wind Pressure Humidity
    00:00 +16°C° 0 mm 2 mps 714 mmHg 75%
    01:00 +16°C° 0 mm 2 mps 713 mmHg 72%
    02:00 +16°C° 0 mm 3 mps 713 mmHg 69%
    03:00 +16°C° 0 mm 3 mps 712 mmHg 66%
    04:00 +16°C° 0 mm 2 mps 712 mmHg 63%
    05:00 +16°C° 0 mm 2 mps 712 mmHg 61%
    06:00 +16°C° 0 mm 2 mps 712 mmHg 58%
    07:00 +17°C° 0 mm 3 mps 712 mmHg 54%
    08:00 +18°C° 0 mm 3 mps 712 mmHg 51%
    09:00 +18°C° 0 mm 4 mps 712 mmHg 47%
    10:00 +19°C° 0 mm 5 mps 712 mmHg 44%
    11:00 +20°C° 0 mm 6 mps 712 mmHg 42%
    12:00 +21°C° 0 mm 7 mps 712 mmHg 39%
    13:00 +20°C° 0 mm 7 mps 712 mmHg 42%
    14:00 +19°C° 0 mm 6 mps 712 mmHg 45%
    15:00 +17°C° 0 mm 6 mps 712 mmHg 48%
    16:00 +17°C° 0 mm 5 mps 712 mmHg 52%
    17:00 +17°C° 0 mm 3 mps 712 mmHg 56%
    18:00 +16°C° 0 mm 1 mps 712 mmHg 59%
    19:00 +16°C° 0 mm 1 mps 712 mmHg 60%
    20:00 +16°C° 0 mm 1 mps 712 mmHg 61%
    21:00 +16°C° 0 mm 1 mps 713 mmHg 62%
    22:00 +15°C° 0.2 mm 1 mps 712 mmHg 63%
    23:00 +15°C° 0.2 mm 1 mps 712 mmHg 64%

    19 November, Monday

    Time Temperature Precipitation Wind Pressure Humidity
    00:00 +15°C° 0.2 mm 1 mps 712 mmHg 65%
    01:00 +14°C° 0.5 mm 2 mps 712 mmHg 68%
    02:00 +14°C° 0.5 mm 2 mps 711 mmHg 70%
    03:00 +14°C° 0.5 mm 2 mps 711 mmHg 72%
    04:00 +13°C° 0.7 mm 2 mps 711 mmHg 73%
    05:00 +13°C° 0.7 mm 2 mps 711 mmHg 74%
    06:00 +13°C° 0.7 mm 2 mps 711 mmHg 75%
    07:00 +14°C° 0.1 mm 2 mps 711 mmHg 71%
    08:00 +14°C° 0.1 mm 2 mps 711 mmHg 67%
    09:00 +15°C° 0.1 mm 2 mps 712 mmHg 62%
    10:00 +14°C° 0.1 mm 3 mps 712 mmHg 59%
    11:00 +15°C° 0.1 mm 5 mps 712 mmHg 55%
    12:00 +16°C° 0.1 mm 6 mps 712 mmHg 52%
    13:00 +15°C° 0.1 mm 6 mps 711 mmHg 52%
    14:00 +15°C° 0.1 mm 6 mps 711 mmHg 53%
    15:00 +15°C° 0.1 mm 6 mps 711 mmHg 53%
    16:00 +14°C° 0 mm 5 mps 712 mmHg 57%
    17:00 +14°C° 0 mm 4 mps 712 mmHg 60%
    18:00 +13°C° 0 mm 4 mps 712 mmHg 63%
    19:00 +13°C° 0.1 mm 4 mps 713 mmHg 64%
    20:00 +13°C° 0.1 mm 4 mps 713 mmHg 66%
    21:00 +12°C° 0.1 mm 5 mps 714 mmHg 67%
    22:00 +12°C° 0 mm 5 mps 714 mmHg 68%
    23:00 +12°C° 0 mm 4 mps 714 mmHg 68%

    20 November, Tuesday

    Time Temperature Precipitation Wind Pressure Humidity
    00:00 +11°C° 0 mm 4 mps 714 mmHg 68%
    01:00 +11°C° 0 mm 4 mps 714 mmHg 67%
    02:00 +11°C° 0 mm 4 mps 713 mmHg 66%
    03:00 +11°C° 0 mm 4 mps 713 mmHg 65%
    04:00 +11°C° 0 mm 4 mps 713 mmHg 64%
    05:00 +11°C° 0 mm 4 mps 714 mmHg 63%
    06:00 +11°C° 0 mm 4 mps 714 mmHg 62%
    07:00 +12°C° 0 mm 4 mps 714 mmHg 58%
    08:00 +14°C° 0 mm 4 mps 715 mmHg 54%
    09:00 +15°C° 0 mm 5 mps 715 mmHg 50%
    10:00 +17°C° 0 mm 6 mps 715 mmHg 46%
    11:00 +18°C° 0 mm 7 mps 715 mmHg 41%
    12:00 +21°C° 0 mm 7 mps 715 mmHg 37%
    13:00 +21°C° 0 mm 7 mps 715 mmHg 36%
    14:00 +22°C° 0 mm 7 mps 714 mmHg 36%
    15:00 +22°C° 0 mm 7 mps 714 mmHg 35%
    16:00 +21°C° 0 mm 5 mps 714 mmHg 40%
    17:00 +19°C° 0 mm 4 mps 714 mmHg 44%
    18:00 +18°C° 0 mm 2 mps 714 mmHg 49%
    19:00 +18°C° 0 mm 2 mps 714 mmHg 49%
    20:00 +17°C° 0 mm 2 mps 715 mmHg 49%
    21:00 +17°C° 0 mm 2 mps 715 mmHg 49%
    22:00 +17°C° 0 mm 2 mps 715 mmHg 48%
    23:00 +17°C° 0 mm 2 mps 715 mmHg 47%
    Show more